Orlando, FL

4:06 PM EST on February 24, 2017 (GMT -0500)
Orlando International

Weather History for KMCO - December, 2012

Change the Weather History Date:

Saturday, December 22, 2012

  Actual Average Record
Temperature  
Mean Temperature 52 °F 62 °F  
Max Temperature 62 °F 72 °F 86 °F (2013)
Min Temperature 41 °F 51 °F 29 °F (1935)
Degree Days  
Heating Degree Days 13 6  
Month to date heating degree days 23 91  
Since 1 July heating degree days 99 138  
Cooling Degree Days 0 2  
Month to date cooling degree days 96 53  
Year to date cooling degree days 3587 3407  
Growing Degree Days 2 (Base 50)    
Moisture  
Dew Point 22 °F    
Average Humidity 42    
Maximum Humidity 62    
Minimum Humidity 21    
Precipitation  
Precipitation 0.00 in 0.09 in 1.70 in (1930)
Month to date precipitation 0.81 1.87  
Year to date precipitation 40.62 50.02  
Sea Level Pressure  
Sea Level Pressure 30.24 in    
Wind  
Wind Speed 9 mph (NW)    
Max Wind Speed 18 mph    
Max Gust Speed 24 mph    
Visibility 10 miles    
Events      
T = Trace of Precipitation, MM = Missing Value Source: NWS Daily Summary

Daily Weather History Graph

Daily Weather History Graph

Search for Another Location

Airport or City:

Trip Planner

Search our weather history database for the weather conditions in past years. The results will help you decide how hot, cold, wet, or windy it might be!

Date:

Astronomy

Dec. 22, 2012 Rise Set
Actual Time 7:14 AM EST 5:34 PM EST
Civil Twilight 6:48 AM EST 6:00 PM EST
Nautical Twilight 6:18 AM EST 6:29 PM EST
Astronomical Twilight 5:49 AM EST 6:58 PM EST
Moon 1:37 PM EST (12/22) 2:13 AM EST (12/22)
Length of Visible Light 11h 11m
Length of Day
10h 20m
Waxing Gibbous, 73% of the Moon is Illuminated
Dec 22
Waxing Gibbous
Dec 28
Full
Jan 4
Last Quarter
Jan 11
New
Jan 18
First Quarter

Hourly Weather History & Observations

Time (EST) Temp. Windchill Dew Point Humidity Pressure Visibility Wind Dir Wind Speed Gust Speed Precip Events Conditions
12:53 AM 46.9 °F - 23.0 °F 39% 30.21 in 10.0 mi NW 10.4 mph - N/A   Clear
1:53 AM 46.0 °F 40.6 °F 19.9 °F 35% 30.22 in 10.0 mi NW 11.5 mph - N/A   Clear
2:53 AM 46.0 °F 39.3 °F 18.0 °F 33% 30.22 in 10.0 mi NW 16.1 mph 23.0 mph N/A   Clear
3:53 AM 45.0 °F 38.5 °F 18.0 °F 34% 30.22 in 10.0 mi NW 13.8 mph 20.7 mph N/A   Clear
4:53 AM 43.0 °F 36.0 °F 19.0 °F 38% 30.22 in 10.0 mi NW 13.8 mph - N/A   Clear
5:53 AM 42.1 °F 34.9 °F 19.9 °F 41% 30.23 in 10.0 mi NW 13.8 mph - N/A   Clear
6:53 AM 41.0 °F 33.5 °F 19.0 °F 41% 30.25 in 10.0 mi NW 13.8 mph - N/A   Partly Cloudy
7:53 AM 42.1 °F 36.1 °F 19.9 °F 41% 30.26 in 10.0 mi NW 10.4 mph - N/A   Clear
8:53 AM 45.0 °F 38.9 °F 19.9 °F 37% 30.28 in 10.0 mi NNW 12.7 mph - N/A   Clear
9:53 AM 48.9 °F - 19.0 °F 31% 30.29 in 10.0 mi NW 12.7 mph - N/A   Clear
10:53 AM 52.0 °F - 16.0 °F 24% 30.29 in 10.0 mi NW 13.8 mph - N/A   Clear
11:53 AM 55.9 °F - 21.0 °F 26% 30.27 in 10.0 mi NW 11.5 mph - N/A   Clear
12:53 PM 59.0 °F - 21.0 °F 23% 30.24 in 10.0 mi West 11.5 mph - N/A   Clear
1:53 PM 60.1 °F - 21.0 °F 22% 30.22 in 10.0 mi WNW 12.7 mph 17.3 mph N/A   Clear
2:53 PM 61.0 °F - 21.0 °F 21% 30.21 in 10.0 mi WNW 9.2 mph - N/A   Clear
3:53 PM 61.0 °F - 21.0 °F 21% 30.20 in 10.0 mi NW 9.2 mph - N/A   Clear
4:53 PM 59.0 °F - 19.0 °F 21% 30.21 in 10.0 mi WNW 8.1 mph - N/A   Partly Cloudy
5:53 PM 54.0 °F - 23.0 °F 30% 30.22 in 10.0 mi NW 5.8 mph - N/A   Partly Cloudy
6:53 PM 52.0 °F - 21.9 °F 31% 30.24 in 10.0 mi NW 3.5 mph - N/A   Clear
7:53 PM 43.0 °F - 28.0 °F 56% 30.25 in 10.0 mi Calm Calm - N/A   Clear
8:53 PM 44.1 °F - 32.0 °F 63% 30.26 in 10.0 mi Calm Calm - N/A   Clear
9:53 PM 44.1 °F - 30.9 °F 60% 30.27 in 10.0 mi Calm Calm - N/A   Clear
10:53 PM 45.0 °F - 30.9 °F 58% 30.26 in 10.0 mi Calm Calm - N/A   Clear
11:53 PM 44.1 °F - 32.0 °F 63% 30.26 in 10.0 mi Calm Calm - N/A   Clear